Regional Weather Roundup
Issued by NWS

Home | Current Version | Previous Version | Graphics & Text | Print | Product List | Glossary On
Versions: 1 2 3 4 5 6 7 8 9 10 11 12 13 14 15 16 17 18 19 20 21 22 23 24 25 26 27 28 29 30 31 32 33 34 35 36 37 38 39 40 41 42 43 44 45 46 47 48 49 50
000
ASUS45 KTFX 232204
RWRMT
MONTANA HOURLY WEATHER ROUNDUP
NATIONAL WEATHER SERVICE GREAT FALLS MT
404 PM MDT WED JUL 23 2014

NOTE: "FAIR" INDICATES FEW OR NO CLOUDS BELOW 12000 FEET WITH NO
SIGNIFICANT WEATHER AND/OR OBSTRUCTIONS TO VISIBILITY.

* THESE STATIONS ARE NOT UNDER NWS QUALITY CONTROL. THEY DO NOT
   REPORT WEATHER SUCH AS PRECIPITATION OR FOG.

MTZ001>007-043-232300-
WEST OF THE DIVIDE
CITY           SKY/WX    TMP DP  RH WIND       PRES   REMARKS
KALISPELL      SUNNY     84  52  33 SE7       29.95F
MISSOULA       SUNNY     90  50  25 S18       29.93F
BUTTE          PTCLDY    84  41  22 S13G18    30.14F
MULLAN PASS    PTCLDY    73  45  37 VRB6      30.11F
* ESSEX        N/A       84  44  25 NE1G6      N/A
* LINCOLN      N/A       87  46  24 SW7G15     N/A
* LOOKOUT PASS N/A       80  45  29 E3G12      N/A
* POLSON       N/A       85  56  37 N3         N/A
* RONAN APT    SUNNY     82  61  49 N/A        N/A   HI  83
* SEELEY LAKE  N/A       85  52  32 SW6G14     N/A
* THOMP F APT  SUNNY     85  34  16 S14G24     N/A
* YAAK HILL    N/A       91  49  24 S4         N/A
$$

MTZ008-052>055-232300-
SOUTHWEST MONTANA
CITY           SKY/WX    TMP DP  RH WIND       PRES   REMARKS
BOZEMAN        PTCLDY    84  52  33 NE7       30.06F
DILLON         PTSUNNY   84  52  33 NE9       30.08F
W YELLOWSTONE  PTCLDY    82  27  13 SW16G24   30.26F
* THREE FORKS  PTCLDY    88  61  40 N6         N/A   HI  88
* BOULDER HILL N/A       81  46  29 SW10G17    N/A
* MONIDA PASS  N/A       81  34  18 S19G29     N/A
* RAYNOLDS PAS N/A       82  62  51 S15G29     N/A   HI  83
* WHITEHALL    N/A       84  51  32 SE5        N/A
* WISE RIVER   N/A       82  47  29 SE8G17     N/A
$$

MTZ009>010-012-014-046-048-049-054-232300-
EAST SLOPES AND CENTRAL MONTANA
CITY           SKY/WX    TMP DP  RH WIND       PRES   REMARKS
CUT BANK       SUNNY     84  55  37 S7        30.01F
GREAT FALLS    SUNNY     91  45  20 W8        29.98F
HELENA         PTCLDY    88  54  31 E16G21    30.00F
MALMSTROM AFB  PTCLDY    90  50  25 E5        29.99F
* CONRAD       SUNNY     84  61  46 SE8        N/A   HI  84
* DEARBORN     N/A       89  45  22 S12G18     N/A
* EAST GLACIER N/A       80  45  29 W8G19      N/A
* MONARCH      N/A       83  45  26 NW8G17     N/A
* PENDROY      N/A       85  53  33 SE13G19    N/A
* SAINT MARY   N/A       80  49  34 W5G12      N/A
* SWEET GRASS  N/A       83  52  34 SW12G17    N/A
$$

MTZ011-013-016-021-035-040-045-047-050-051-232300-
NORTH CENTRAL MONTANA
CITY           SKY/WX    TMP DP  RH WIND       PRES   REMARKS
HAVRE          PTSUNNY   93  57  30 E12G26    29.94F
LEWISTOWN      PTCLDY    88  54  31 SW7       30.06F
* CHESTER      N/A       89  51  27 SW3G8      N/A
* DENTON       N/A       89  54  30 SE6G11     N/A
* JUDITH GAP   N/A       83  54  37 SE6G14     N/A
* LOMA         N/A       91  52  26 SE9        N/A
$$

MTZ017>020-022>027-061-062-232300-
NORTHEAST MONTANA
CITY           SKY/WX    TMP DP  RH WIND       PRES   REMARKS
GLASGOW        PTCLDY    91  55  30 SE25G31   29.98F
GLENDIVE       PTSUNNY   90  64  42 E18G25    30.04F HI  91
JORDAN         PTCLDY    91  61  37 SE21G29   29.98F
SIDNEY         PTCLDY    90  64  42 SE15G20   30.06F HI  91
WOLF POINT     SUNNY     93  59  32 E21G28    30.01F
* BEAVER HILL  N/A       85  63  48 E21G29     N/A   HI  86
* CIRCLE       N/A       89  62  41 E17G23     N/A   HI  90
* LINDSAY DVD  N/A       86  63  46 SE16G24    N/A   HI  87
* NAVAJO       N/A       82  61  49 E17G24     N/A   HI  83
* SACO         N/A       89  59  36 E16G25     N/A
$$

MTZ028>042-056>058-232300-
SOUTHCENTRAL AND SOUTHEAST MONTANA
CITY           SKY/WX    TMP DP  RH WIND       PRES   REMARKS
BAKER          PTCLDY    86  61  43 SE22G31   30.08F HI  86
BILLINGS       PTCLDY    90  57  33 E8        30.02F
LIVINGSTON     PTCLDY    93  48  21 VRB7      30.05F
MILES CITY     PTCLDY    95  63  35 E20G25    29.97F
* LAUREL APT   PTCLDY    88  55  33 N/A        N/A
* ROUNDUP APT  PTCLDY    88  57  35 N/A        N/A
* ALZADA       N/A       88  64  45 E8G14      N/A   HI  89
* HYSHAM       N/A       90  59  35 E6G11      N/A
* LAME DEER    N/A       89  65  45 S8G20      N/A   HI  91
* REED POINT   N/A       92  51  25 NW2        N/A
* ROSCOE HILL  N/A       87  52  30 NW6        N/A
$$

REGIONAL REPORTS...DAKOTAS
CITY           SKY/WX    TMP DP  RH WIND       PRES   REMARKS
WILLISTON      PTSUNNY   88  63  43 SE23G30   30.09F HI  89
DICKINSON      PTCLDY    81  63  54 SE20G29   30.12F HI  82
CROSBY         PTCLDY    77  72  85 E18G25    30.13F
TIOGA          PTSUNNY   81  64  56 SE16G24   30.17F HI  83
WATFORD CITY   SUNNY     84  63  49 SE17G26   30.08F HI  85
BISMARCK       SUNNY     82  61  49 SE16G23   30.17F HI  83
GRAND FORKS    PTCLDY    75  59  58 NW5       30.24F
FARGO          PTCLDY    77  57  50 N5        30.23F
BUFFALO SD     PTCLDY    86  61  43 E22G30    30.03F HI  86
RAPID CITY     SUNNY     84  64  51 SE17      30.14F HI  85
$$

REGIONAL REPORTS...WYOMING/IDAHO/WASHINGTON
CITY           SKY/WX    TMP DP  RH WIND       PRES   REMARKS
GILLETTE       SUNNY     93  57  30 SE18      30.09F
SHERIDAN       SUNNY     95  61  32 SE12      30.01F
YELLOWSTONE LA PTCLDY    79  30  17 SW8       30.39F
SALMON         PTCLDY    88  50  27 NW10      29.94F
MULLAN PASS    PTCLDY    73  45  37 VRB6      30.11S
SAND POINT     PTCLDY    82  54  38 N5        29.88F
SPOKANE        PTSUNNY   86  48  27 S20G29    29.87F

$$




USA.gov is the U.S. government's official web portal to all federal, state and local government web resources and services.